Biloxi, MS

2:32 AM CST on November 22, 2017 (GMT -0600)
Keesler Air Force Base

Weather History for KBIX - October, 2012

Change the Weather History Date:

Monday, October 29, 2012

  Actual Average Record
Temperature  
Mean Temperature 53 °F -  
Max Temperature 63 °F 76 °F 87 °F (2000)
Min Temperature 43 °F 56 °F 35 °F (1957)
Degree Days  
Heating Degree Days 12    
Growing Degree Days 3 (Base 50)    
Moisture  
Dew Point 34 °F    
Average Humidity 51    
Maximum Humidity 77    
Minimum Humidity 26    
Precipitation  
Precipitation 0.00 in - - ()
Sea Level Pressure  
Sea Level Pressure 30.10 in    
Wind  
Wind Speed 12 mph (NNW)    
Max Wind Speed 21 mph    
Max Gust Speed 29 mph    
Visibility 10 miles    
Events      
Averages and records for this station are not official NWS values.
T = Trace of Precipitation, MM = Missing Value Source: NWS Daily Summary

Daily Weather History Graph

Daily Weather History Graph

Search for Another Location

Airport or City:

Trip Planner

Search our weather history database for the weather conditions in past years. The results will help you decide how hot, cold, wet, or windy it might be!

Date:

Astronomy

Oct. 29, 2012 Rise Set
Actual Time 7:08 AM CDT 6:10 PM CDT
Civil Twilight 6:43 AM CDT 6:34 PM CDT
Nautical Twilight 6:15 AM CDT 7:03 PM CDT
Astronomical Twilight 5:47 AM CDT 7:31 PM CDT
Moon 6:05 PM CDT (10/29) 6:56 AM CDT (10/29)
Length of Visible Light 11h 51m
Length of Day
11h 01m
Full, 100% of the Moon is Illuminated
Oct 29
Full
Oct 29
Full
Nov 6
Last Quarter
Nov 13
New
Nov 20
First Quarter

Hourly Weather History & Observations

Time (CDT) Temp. Windchill Dew Point Humidity Pressure Visibility Wind Dir Wind Speed Gust Speed Precip Events Conditions
12:55 AM 49.1 °F - 37.4 °F 64% 30.12 in 10.0 mi NNW 9.2 mph - N/A   Clear
1:55 AM 47.7 °F - 37.4 °F 68% 30.11 in 10.0 mi NNW 8.1 mph - N/A   Clear
2:55 AM 47.5 °F - 37.0 °F 67% 30.11 in 10.0 mi North 12.7 mph - N/A   Clear
3:55 AM 46.6 °F - 36.7 °F 68% 30.11 in 10.0 mi North 12.7 mph - N/A   Clear
4:55 AM 44.8 °F 38.3 °F 36.5 °F 73% 30.12 in 10.0 mi North 13.8 mph 19.6 mph N/A   Clear
5:55 AM 44.4 °F 38.2 °F 36.5 °F 74% 30.12 in 10.0 mi North 12.7 mph - N/A   Clear
6:55 AM 43.3 °F 36.8 °F 36.7 °F 77% 30.13 in 10.0 mi North 12.7 mph - N/A   Clear
7:55 AM 44.4 °F 39.5 °F 36.5 °F 74% 30.15 in 10.0 mi North 9.2 mph - N/A   Clear
8:55 AM 48.2 °F - 35.2 °F 61% 30.16 in 10.0 mi North 12.7 mph - N/A   Clear
9:55 AM 52.3 °F - 33.8 °F 49% 30.16 in 10.0 mi North 20.7 mph 25.3 mph N/A   Clear
10:55 AM 55.8 °F - 34.2 °F 44% 30.14 in 10.0 mi North 16.1 mph 24.2 mph N/A   Clear
11:55 AM 58.8 °F - 32.4 °F 37% 30.12 in 10.0 mi North 18.4 mph - N/A   Clear
12:55 PM 61.7 °F - 33.6 °F 35% 30.09 in 10.0 mi North 15.0 mph 24.2 mph N/A   Clear
1:55 PM 62.4 °F - 32.2 °F 32% 30.06 in 10.0 mi North 17.3 mph 28.8 mph N/A   Clear
2:55 PM 63.0 °F - 28.0 °F 27% 30.05 in 10.0 mi North 19.6 mph 27.6 mph N/A   Clear
3:55 PM 62.4 °F - 27.3 °F 26% 30.04 in 10.0 mi North 18.4 mph 27.6 mph N/A   Clear
4:55 PM 61.5 °F - 30.0 °F 30% 30.02 in 10.0 mi NNW 15.0 mph - N/A   Clear
5:55 PM 58.8 °F - 31.1 °F 35% 30.04 in 10.0 mi NNW 10.4 mph - N/A   Clear
6:55 PM 56.3 °F - 33.3 °F 42% 30.05 in 10.0 mi NNW 10.4 mph - N/A   Clear
7:55 PM 54.1 °F - 33.3 °F 45% 30.06 in 10.0 mi NNW 10.4 mph - N/A   Clear
8:55 PM 53.1 °F - 33.1 °F 47% 30.08 in 10.0 mi NNW 10.4 mph - N/A   Clear
9:55 PM 52.2 °F - 32.9 °F 48% 30.08 in 10.0 mi NNW 11.5 mph - N/A   Clear
10:55 PM 50.7 °F - 33.3 °F 51% 30.09 in 10.0 mi NNW 9.2 mph - N/A   Clear
11:55 PM 47.5 °F - 34.7 °F 61% 30.10 in 10.0 mi NNW 10.4 mph - N/A   Clear